New Plymouth (NZNP)

Aerodrome — Elev 97
New Zealand
S039.00.31.000 E174.10.45.001
Loading chart...

Current Weather

NZNP 230100Z 32009KT 20KM NCD 20/14 Q1027 RMK AUTO VATSIM USE ONLY

Published 50 minutes ago

Airport Activity

Loading chart...
Loading chart...

Positions

CallsignRadio Name / Freq / Voice Room / TypeFrequencyVoice RoomType
NZCH-T_CTR Christchurch Control
123.700
nzch-t_ctr
123.700nzch-t_ctr
NZNP_TWR New Plymouth Tower
124.700
nznp_twr
124.700nznp_twr
NZNP_ATIS New Plymouth ATIS
127.050
nznp_atis
127.050nznp_atis
UNICOM NZZC UNICOM
122.800
unicom_nzzc
122.800unicom_nzzc

Charts